NILESAT 301

导读

NILESAT 301是埃及于2022年6月8日发射的通信卫星,由埃及尼罗河卫星公司运营,主要服务于中东、北非地区,提供高清电视广播、通信传输等服务,进一步强化了区域卫星通信覆盖能力,提升了埃及本土卫星通信业务的服务稳定性与容量,满足当地民众媒体传播等多元需求。

基本信息
目录编号:
52817
目录名称:
NILESAT 301
国际标识:
2022-061A
轨道中心:
EARTH
卫星名称:
NILESAT 301
卫星全名:
--
卫星状态:
在轨 (已飞行1470 天)
发射日期:
2022-06-08 UTC
国别 :
埃及 (EG)
星等 :
--
轨道信息
数据来源 国际轨道数据 AOE轨道数据
星历时间 2026-06-16T22:41:26+0800
19小时前
查看轨道信息
2026-06-16T05:00:00+0800
1天前
查看轨道信息
半长轴 42165.121km 42165.093km
偏心率 0.00046 0.0004653
轨道倾角 0.047° 0.047°
近地点辐角 46.174° 45.825°
升交点赤经 8.801° 7.376°
平近点角 63.265° 158.957°
近地点 35767.588km 35767.336km
远地点 35806.38km 35806.576km
周期 1436.117分钟 1436.115分钟
每日圈数 1.002704 1.002705
详细信息
使用方式:
暂无
2D轨道图
3D轨道图
轨道高度分析图
轨道倾角分析图
轨道综合分析图
查看轨道综合分析图